OneWeb SL0565

operational
NORAD ID: 55146 Int'l Des: 2023-004 Owner: ONEWEBN Country: UK Constellation: oneweb
LEOCIRCULARPOLARONEWEB_TYPE

关于 OneWeb SL0565

正在加载描述...

实时位置

正在加载3D地球...

即将过境

高度历史

Altitude vs Time

uPlot chart will show altitude changes over time

两行轨道根数

1 55146U 23004G 25258.62284240 .00000052 00000-0 99763-4 0 9995
2 55146 87.9177 30.0534 0001916 114.6299 245.5033 13.18686140133519
Epoch: Sep 15, 2025 • Age: 11 hours

当前状态

高度 1205.9 km
速度 7.25 km/s
星下点 -39.07°S, 7.86°E
发射日期 Jan 10, 2023
运行时间 2.6 years
类型 internet

技术详情

分类 Payload
质量 148.00 kg
干质量 140.00 kg
总质量 148.00 kg
长度 1.30 m
直径 1.00 m
跨度 5.00 m
形状 Trapezoid+2 pan
制造商 ONEWUS
平台类型 ARROW
阶段状态 In Orbit
所有者/国家 ONEWEBN/UK

大型星座

Loading constellations...